Location: Presov
(49.0000°N, 21.2500°E)
Time: 09:59:26
(UTC+02:00)

A-11 Canister half - Pass Details

Date: 26 April 2021
Orbit: 1526 x 1683 km, 47.3° (Epoch: 11 May)

Event Time Altitude Azimuth Distance (km) Brightness Sun altitude
Rises 21:27:50 0° 290° (WNW) 4,938 12.9 -15.1°
Reaches altitude 10° 21:31:47 10° 278° (W) 3,949 12.0 -15.6°
Maximum altitude 21:39:16 24° 229° (SW) 2,951 10.5 -16.5°
Drops below altitude 10° 21:46:43 10° 181° (S) 3,901 10.7 -17.3°
Enters shadow 21:47:00 - 179° (S) 3,965 10.7 -17.3°
